Location: Sternwarte_Laufen
(47.9344°N, 12.9346°E)
Time: 00:41:54
(UTC+02:00)

ISS - Pass Details

Date: 24 May 2017
Orbit: 402 x 408 km, 51.6° (Epoch: 27 May)

Event Time Altitude Azimuth Distance (km) Brightness Sun altitude
Rises 21:51:43 0° 211° (SSW) 2,322 -0.1 -8.7°
Reaches altitude 10° 21:54:02 10° 197° (SSW) 1,464 -1.3 -8.9°
Maximum altitude 21:56:44 24° 141° (SE) 897 -2.7 -9.3°
Drops below altitude 10° 21:59:27 10° 86° (E) 1,470 -1.4 -9.6°
Sets 22:01:47 0° 72° (ENE) 2,333 -0.2 -9.8°
